Location: Waco, TX
(31.5480°N, 97.1670°W)
Time: 22:23:35
(UTC-06:00)

ISS - Pass Details

Date: 14 November 2018
Orbit: 402 x 408 km, 51.6° (Epoch: 17 November)

Event Time Altitude Azimuth Distance (km) Brightness Sun altitude
Rises 21:26:57 0° 212° (SSW) 2,297 - -50.4°
Reaches altitude 10° 21:29:03 10° 206° (SSW) 1,442 - -50.8°
Maximum altitude 21:32:10 46° 132° (SE) 543 - -51.5°
Drops below altitude 10° 21:35:18 10° 57° (ENE) 1,449 - -52.1°
Sets 21:37:26 0° 51° (NE) 2,311 - -52.6°
